STARLINK-4382 (53194 NORAD) Tracking and Keplerian Element Data

This shows tracking and keplerian element data for the satellite.

Feedback or suggestion? Click here.




ElementValue
Catalog53194
NameSTARLINK-4382
Epoch Orbit1028
Epoch Day269.78091456
Epoch Year2022
RAAN329.6147
Inclination97.6561
Eccentricity0.0001982
Argument of Perigee81.4134
Mean Anonmoly278.7314
Mean Motion15.01261915
Decay Rate-9.27E-06
L11 53194U 22084F 22269.78091456 -.00000927 00000+0 -67559-4 0 9994
L22 53194 97.6561 329.6147 0001982 81.4134 278.7314 15.01261915 10285

Live tracking and technical data element details for STARLINK-4382 (NORAD 53194). STARLINK-4382 can be tracked NOW for your location showing map with azimuth and elevation plus other details from your city location.

Track the satellite on the map from your city or location and see movement details for azimuth, elevation, latitude, longitude, range, height, and movement on the map or in text.







IsCatalogInMostPopularTable: catalog: 53194, numindb: 7
Update: records affected: 1



GetName: 53194 STARLINK-4382

Hit Count: updated at: Wed, 28 Sep 2022 22:01:11 GMT